Voltar ao catálogo

FREGAT DEB

LostHEO
NORAD 46624·DEBRIS·🇷🇺 Russia

Lançado Jul 18, 2011 de Baikonur Cosmodrome

Loading…

Próximas Passagens (próximas 24 horas)

TLE

ObsoletoSource: Space-Track

Época: Dec 6, 2020, 00:09 UTC

1 46624U 11037MQ  20341.00665791  .00490684  00000-0  59176+0 0  9996
2 46624  52.2229  95.3696 2587818 226.0457 109.5791  9.50043537  6867

Acompanhe FREGAT DEB em tempo real com AllMySat

Download on the App Store